Date,TemperatureHighF,TemperatureAvgF,TemperatureLowF,DewpointHighF,DewpointAvgF,DewpointLowF,HumidityHigh,HumidityAvg,HumidityLow,PressureMaxIn,PressureMinIn,WindSpeedMaxMPH,WindSpeedAvgMPH,GustSpeedMaxMPH,PrecipitationSumIn
2013-1-1,74.7,58.0,45.1,59.3,52.3,44.6,100,84,54,30.22,30.01,11,0,11,0.00
2013-1-2,74.4,62.1,52.0,66.6,59.4,51.7,100,92,74,30.08,29.96,10,0,10,0.04
2013-1-3,62.3,56.6,49.2,61.7,55.1,47.8,98,95,85,30.25,30.05,8,0,8,0.14
2013-1-4,56.6,50.4,46.5,50.5,47.4,44.5,97,89,78,30.32,30.22,6,0,6,0.00
2013-1-5,65.5,52.0,40.5,52.4,46.0,37.1,96,81,59,30.35,30.24,7,0,7,0.01
2013-1-6,61.0,55.9,51.6,55.1,52.8,50.0,99,90,77,30.26,30.11,6,0,6,1.20
2013-1-7,62.1,53.6,45.8,52.3,48.2,41.2,98,82,69,30.29,30.18,11,0,11,0.00
2013-1-8,72.0,61.7,55.0,64.6,57.6,51.3,95,87,75,30.28,30.18,7,0,7,0.00
2013-1-9,77.2,67.1,60.2,69.4,64.7,58.8,100,93,75,30.34,30.23,5,0,5,0.00
2013-1-10,79.4,69.1,62.6,71.3,65.8,62.0,100,90,63,30.35,30.26,5,0,5,0.07
2013-1-11,81.4,67.7,57.6,69.6,61.8,57.6,100,84,48,30.27,30.15,7,0,7,0.01
2013-1-12,81.8,67.5,58.3,69.0,61.9,58.3,100,85,52,30.20,30.10,7,0,7,0.00
2013-1-13,79.8,66.8,56.9,68.8,61.2,56.7,100,84,53,30.17,30.07,6,0,6,0.01
2013-1-14,81.2,67.5,56.7,67.8,60.9,56.6,100,82,51,30.19,30.10,6,0,6,0.00
2013-1-15,80.1,68.4,57.8,68.0,62.0,57.5,100,82,54,30.16,30.04,6,0,6,0.00
2013-1-16,80.5,69.0,59.3,68.2,61.8,57.2,100,80,52,30.09,29.97,10,0,10,0.00
2013-1-17,73.9,57.6,43.1,64.5,52.0,33.3,100,83,55,30.15,29.92,20,1,20,0.00
2013-1-18,58.9,49.3,41.3,44.4,39.4,32.8,79,69,57,30.40,30.15,16,1,16,0.00
2013-1-19,65.6,54.2,45.7,54.4,47.7,39.2,93,79,64,30.36,30.20,7,0,8,0.00
2013-1-20,72.8,59.9,49.8,54.2,51.0,47.3,96,76,42,30.21,30.06,8,0,8,0.00
2013-1-21,69.1,55.7,47.3,50.9,48.0,44.5,98,78,46,30.13,30.02,9,0,9,0.00
2013-1-22,62.0,50.4,39.2,44.5,34.5,25.3,87,58,27,30.30,30.09,11,0,11,0.00
2013-1-23,62.4,45.9,31.9,40.5,33.4,26.0,94,67,30,30.42,30.27,8,0,8,0.00
2013-1-24,71.6,55.5,39.8,51.8,45.6,37.4,93,72,42,30.31,30.18,13,1,13,0.00
2013-1-25,73.7,60.1,50.1,55.5,50.2,45.4,95,73,38,30.33,30.15,10,0,10,0.00
2013-1-26,74.6,61.0,48.5,59.7,54.6,47.4,100,81,58,30.23,30.14,7,0,7,0.00
2013-1-27,71.1,61.3,55.6,57.5,55.0,52.3,96,81,58,30.37,30.21,15,0,15,0.00
2013-1-28,77.9,65.4,53.1,61.9,58.3,52.0,99,79,52,30.37,30.25,8,0,8,0.00
2013-1-29,80.1,67.0,55.3,67.0,61.5,54.8,100,84,54,30.27,30.09,9,0,9,0.00
2013-1-30,84.0,73.1,58.6,65.6,62.9,56.4,97,73,49,30.11,29.78,19,1,19,0.18
2013-1-31,58.9,52.2,38.5,56.4,37.2,23.6,95,61,27,30.25,29.89,19,1,19,0.07
2013-2-1,64.0,41.1,32.9,37.7,32.5,26.1,93,75,28,30.33,30.24,13,0,13,0.00
2013-2-2,65.2,44.6,33.1,37.3,27.9,21.3,89,54,26,30.35,30.16,6,0,6,0.00
2013-2-3,66.3,49.6,35.9,41.6,33.1,24.4,92,59,21,30.19,30.03,10,0,10,0.00
2013-2-4,64.5,50.4,36.2,44.3,38.1,31.6,96,67,31,30.13,30.04,6,0,6,0.00
2013-2-5,69.8,55.5,41.1,53.8,45.6,39.0,96,72,43,30.11,29.99,7,0,7,0.00
2013-2-6,69.1,61.1,56.0,58.3,55.3,51.5,96,82,67,30.15,30.04,3,0,3,0.01
2013-2-7,76.5,65.3,58.7,65.2,61.7,55.7,100,89,62,30.10,29.79,7,0,7,0.16
2013-2-8,69.1,61.0,51.1,64.5,54.5,49.4,94,80,60,30.09,29.83,11,1,11,0.00
2013-2-9,68.1,54.1,45.4,50.9,46.0,40.5,98,77,45,30.26,30.08,14,0,15,0.01
2013-2-10,75.6,60.3,45.2,57.8,52.0,42.5,98,77,48,30.30,30.16,12,0,13,0.00
2013-2-11,80.5,69.6,60.4,62.8,59.8,56.6,90,72,51,30.19,30.05,11,0,11,0.00
2013-2-12,81.2,70.1,60.2,67.3,63.7,58.5,100,82,53,30.07,29.86,10,0,10,0.00
2013-2-13,75.3,70.2,58.6,72.2,64.6,48.6,97,83,53,29.93,29.79,16,1,16,0.56
2013-2-14,59.0,52.1,46.2,56.0,49.0,44.0,95,89,79,30.09,29.91,6,0,6,0.16
2013-2-15,65.5,50.9,38.8,47.2,42.7,37.8,98,77,38,30.11,29.97,7,0,7,0.01
2013-2-16,57.8,46.5,39.3,45.4,40.1,22.1,98,80,48,30.14,29.92,16,1,16,0.01
2013-2-17,51.9,38.5,27.5,26.8,19.1,6.7,84,52,17,30.36,30.14,14,0,14,0.01
2013-2-18,62.9,43.6,25.1,41.8,32.1,22.9,94,69,33,30.41,30.23,9,0,9,0.00
2013-2-19,77.7,58.1,39.5,61.8,48.0,37.9,99,73,40,30.24,29.99,17,1,17,0.03
2013-2-20,67.8,56.0,45.2,57.2,38.7,23.7,96,57,26,30.18,30.06,8,0,8,0.00
2013-2-21,73.2,55.8,39.6,53.5,45.2,35.6,96,71,35,30.16,30.03,8,0,8,0.00
2013-2-22,83.4,69.2,57.2,67.1,61.5,53.5,99,78,52,30.08,29.98,9,0,9,0.00
2013-2-23,81.8,68.8,62.3,67.9,65.2,60.5,100,90,53,29.99,29.83,17,0,17,0.39
2013-2-24,75.8,63.5,54.7,63.3,60.6,43.2,100,92,41,30.00,29.85,7,0,7,0.18
2013-2-25,66.9,61.7,55.3,66.9,61.0,53.9,100,98,90,29.94,29.79,12,0,12,2.27
2013-2-26,78.1,68.6,60.1,69.4,62.0,51.0,100,82,41,29.83,29.65,19,1,19,0.48
2013-2-27,69.9,59.7,52.6,54.1,46.6,40.4,84,64,37,29.98,29.82,11,1,11,0.00
2013-2-28,69.1,57.2,44.5,46.2,41.5,32.2,93,59,34,29.98,29.84,18,1,18,0.00
2013-3-1,60.4,52.4,46.4,38.8,36.0,33.0,67,54,37,30.01,29.89,11,0,11,0.00
2013-3-2,54.4,44.4,34.9,36.4,31.5,25.8,94,63,37,30.03,29.92,18,1,18,0.00
2013-3-3,46.4,38.6,30.0,32.0,28.2,25.0,91,68,45,30.14,29.99,13,1,13,0.00
2013-3-4,63.4,44.9,28.7,39.7,29.3,19.6,92,62,25,30.22,30.10,10,0,10,0.00
2013-3-5,75.8,57.4,37.2,56.8,44.3,35.1,94,67,27,30.18,29.89,12,1,12,0.00
2013-3-6,65.5,51.6,39.3,60.4,34.4,23.6,89,55,28,30.14,29.86,17,2,17,0.04
2013-3-7,63.7,47.2,33.7,41.7,34.1,30.3,91,65,32,30.24,30.13,8,0,8,0.00
2013-3-8,71.5,50.8,35.0,49.2,40.3,34.0,98,73,27,30.24,30.14,9,0,9,0.00
2013-3-9,70.9,53.3,39.1,49.6,44.3,38.1,99,75,33,30.28,30.17,10,0,10,0.00
2013-3-10,76.8,60.8,46.0,56.4,51.1,44.9,99,74,44,30.22,30.12,12,0,12,0.00
2013-3-11,76.3,60.0,50.8,59.0,53.9,50.0,99,82,49,30.13,29.89,8,0,8,0.00
2013-3-12,68.6,63.4,48.6,67.6,57.9,42.6,99,83,43,30.02,29.82,9,0,9,0.11
2013-3-13,70.3,56.9,46.7,46.0,36.0,27.8,92,51,22,30.18,30.01,13,1,13,0.00
2013-3-14,61.2,49.2,36.9,38.2,30.0,23.3,88,51,26,30.31,30.17,10,0,10,0.00
2013-3-15,73.0,52.3,34.0,43.8,35.2,26.0,94,60,26,30.28,30.11,7,0,8,0.00
2013-3-16,79.4,60.9,42.1,52.4,45.5,40.4,97,62,28,30.16,29.99,14,1,14,0.00
2013-3-17,77.9,62.2,44.9,54.7,46.0,40.1,95,60,27,30.12,29.98,4,0,6,0.00
2013-3-18,80.7,67.9,58.7,62.8,59.1,53.9,96,75,48,30.05,29.85,12,0,12,0.00
2013-3-19,79.2,68.6,59.0,62.8,58.8,54.4,98,73,44,30.03,29.88,13,1,13,0.12
2013-3-20,68.3,59.5,50.2,58.0,53.4,49.3,98,81,54,30.02,29.84,13,0,13,0.14
2013-3-21,66.8,51.9,38.3,49.7,36.3,21.6,99,64,20,29.96,29.85,13,1,13,0.01
2013-3-22,67.9,53.5,41.5,47.3,38.1,31.6,89,60,30,30.06,29.93,7,0,7,0.00
2013-3-23,66.6,58.5,50.1,64.9,57.0,47.1,100,95,80,30.00,29.77,13,0,13,3.26
2013-3-24,83.6,71.4,60.4,72.6,66.2,60.2,100,86,48,29.80,29.52,17,1,17,0.29
2013-3-25,67.3,58.3,49.1,60.6,36.0,20.9,86,47,20,30.03,29.62,19,2,19,0.00
2013-3-26,55.9,46.5,37.9,34.9,27.6,22.4,86,50,30,30.25,30.03,16,1,16,0.00
2013-3-27,60.7,45.4,32.1,38.0,31.3,26.1,92,63,29,30.31,30.20,10,0,10,0.00
2013-3-28,67.6,50.7,34.7,41.8,32.6,23.9,94,59,20,30.30,30.20,15,0,15,0.00
2013-3-29,73.0,54.9,37.9,46.9,38.2,30.0,99,62,22,30.33,30.19,12,0,12,0.00
2013-3-30,76.8,59.3,41.3,49.3,42.1,35.7,97,62,24,30.26,30.09,11,0,11,0.00
2013-3-31,80.7,65.3,49.6,56.7,50.8,45.0,87,62,38,30.13,29.96,15,1,15,0.00
2013-4-1,80.5,67.9,59.6,68.1,61.4,56.6,94,81,55,30.00,29.88,13,0,13,0.13
2013-4-2,79.8,65.0,51.7,60.8,50.6,42.5,100,66,28,30.11,29.97,7,0,8,0.00
2013-4-3,80.3,63.2,49.8,64.6,57.1,48.7,100,83,45,30.11,30.01,5,0,5,0.38
2013-4-4,76.7,69.6,64.3,71.5,65.8,63.2,100,88,68,30.05,29.85,8,0,12,0.17
2013-4-5,65.6,59.2,52.6,64.4,57.5,51.1,99,94,85,30.03,29.80,8,0,8,0.28
2013-4-6,72.0,59.4,47.0,56.9,51.9,46.5,100,79,45,30.18,30.02,12,0,12,0.00
2013-4-7,79.8,64.8,54.8,64.1,56.9,52.9,100,78,49,30.19,30.09,8,0,8,0.00
2013-4-8,83.6,67.0,52.5,65.1,57.7,52.0,100,76,41,30.16,30.07,7,0,7,0.00
2013-4-9,82.8,69.7,56.7,67.8,61.3,56.4,100,77,49,30.19,30.08,8,0,8,0.00
2013-4-10,83.4,69.8,54.4,66.7,62.2,53.8,100,79,52,30.15,30.00,9,0,9,0.00
2013-4-11,85.5,74.5,67.3,76.3,70.5,65.9,100,88,59,30.00,29.80,9,0,9,0.65
2013-4-12,86.5,76.4,71.5,74.5,70.1,64.7,100,83,53,29.88,29.74,19,1,19,0.02
2013-4-13,82.6,71.4,59.2,66.9,53.8,44.8,89,58,27,30.01,29.87,3,0,7,0.00
2013-4-14,74.7,64.0,57.6,68.5,61.2,55.8,100,91,58,30.02,29.85,8,0,8,0.98
2013-4-15,85.9,70.9,61.2,69.9,64.3,61.2,100,82,49,30.12,29.81,8,0,8,0.01
2013-4-16,84.3,72.8,64.2,70.2,66.0,63.0,99,81,54,30.18,30.09,8,0,8,0.00
2013-4-17,79.2,70.2,60.9,69.4,65.1,60.9,100,85,64,30.18,30.09,8,0,8,0.00
2013-4-18,87.0,69.1,63.2,73.2,65.0,63.2,100,89,48,30.10,29.96,9,0,9,0.00
2013-4-19,89.3,77.5,64.7,72.2,69.7,61.0,96,78,50,30.00,29.86,13,0,13,0.14
2013-4-20,64.2,55.5,50.5,61.2,53.0,48.8,98,92,74,30.20,29.99,11,0,11,0.79
2013-4-21,72.8,61.3,50.2,62.5,56.6,49.7,100,85,68,30.20,30.10,15,0,15,0.09
2013-4-22,64.7,62.3,58.3,63.9,59.3,53.7,99,90,73,30.15,30.05,14,1,14,0.92
2013-4-23,74.4,63.0,54.7,60.4,56.0,53.7,100,80,52,30.16,30.07,9,0,9,0.01
2013-4-24,85.1,67.1,50.4,68.3,57.4,50.1,100,75,36,30.16,30.07,8,0,8,0.00
2013-4-25,72.0,61.5,58.0,65.7,60.9,57.7,100,98,77,30.19,30.10,0,0,0,0.00
2013-4-26,81.4,69.3,60.7,67.2,62.1,53.3,94,79,55,30.28,30.15,9,0,9,0.00
2013-4-27,83.0,69.9,57.8,65.8,59.6,54.3,100,73,42,30.25,30.14,10,0,10,0.00
2013-4-28,82.2,72.0,63.5,69.7,64.1,61.2,100,78,55,30.16,29.98,9,0,9,0.00
2013-4-29,83.2,71.3,64.5,67.7,64.8,62.0,100,82,54,30.02,29.90,11,0,11,0.50
2013-4-30,85.1,71.4,62.7,71.6,65.5,62.7,100,84,50,30.03,29.92,5,0,5,0.00
2013-5-1,77.9,69.2,62.1,68.3,64.8,61.6,100,87,72,30.05,29.96,10,0,10,0.00
2013-5-2,71.1,68.9,66.8,70.8,68.1,63.3,100,97,86,30.02,29.88,20,0,20,2.50
2013-5-3,71.8,67.4,65.5,68.6,65.7,61.6,100,95,79,29.89,29.81,18,0,18,2.55
2013-5-4,70.3,68.1,65.3,70.1,67.1,59.9,100,97,78,29.83,29.67,11,0,11,5.12
2013-5-5,77.9,67.1,59.3,67.9,58.0,48.8,100,77,38,29.87,29.70,11,0,11,0.01
2013-5-6,73.2,63.4,53.6,57.5,51.2,44.4,95,67,38,29.97,29.84,9,0,9,0.00
2013-5-7,77.0,65.2,52.8,61.4,55.6,51.3,98,73,46,30.01,29.89,15,0,15,0.00
2013-5-8,80.7,68.1,55.3,64.1,57.9,54.2,100,73,43,30.09,29.98,10,0,10,0.00
2013-5-9,84.9,72.0,59.8,67.6,60.9,56.4,100,72,39,30.12,30.05,3,0,5,0.00
2013-5-10,89.9,74.0,59.3,68.2,62.4,56.8,100,71,33,30.12,29.97,6,0,6,0.00
2013-5-11,88.0,73.5,65.2,71.9,67.8,64.7,100,85,52,30.04,29.92,21,0,21,0.46
2013-5-12,84.3,73.6,66.1,72.9,66.5,59.6,100,81,50,30.02,29.91,11,0,11,0.01
2013-5-13,78.6,68.5,55.0,61.5,48.9,39.1,93,54,25,30.14,29.99,10,0,10,0.00
2013-5-14,82.4,64.9,47.3,53.9,45.6,33.3,96,59,18,30.23,30.14,8,0,8,0.00
2013-5-15,86.7,69.4,52.0,63.4,54.9,49.0,100,66,28,30.22,30.06,6,0,6,0.00
2013-5-16,86.7,72.7,58.1,67.1,61.9,57.3,99,72,39,30.12,30.00,8,0,8,0.00
2013-5-17,89.3,75.1,62.1,68.0,63.9,51.0,100,72,28,30.10,30.03,6,0,6,0.00
2013-5-18,89.7,76.7,66.3,72.6,68.5,62.0,100,79,45,30.12,30.00,9,0,9,1.25
2013-5-19,87.6,75.7,68.1,76.4,70.7,65.7,100,86,56,30.11,29.97,7,0,7,0.05
2013-5-20,85.9,74.4,68.1,76.1,70.8,66.9,100,89,61,30.08,29.99,4,0,6,0.15
2013-5-21,85.9,74.1,67.3,75.0,69.7,67.3,100,87,58,30.04,29.93,7,0,7,0.01
2013-5-22,84.0,73.9,66.3,76.2,70.3,66.3,100,89,65,29.99,29.89,7,0,7,0.57
2013-5-23,90.7,78.1,67.8,73.0,69.0,65.2,100,78,45,29.97,29.88,6,0,7,0.01
2013-5-24,89.7,77.8,66.4,72.3,65.9,50.9,100,72,29,30.10,29.92,14,0,14,0.00
2013-5-25,84.0,71.9,61.6,62.3,57.5,51.8,96,65,35,30.24,30.09,10,0,10,0.00
2013-5-26,87.2,71.2,56.6,65.5,57.0,49.3,100,67,30,30.22,30.14,5,0,5,0.00
2013-5-27,85.9,72.4,58.0,68.9,62.2,57.4,100,73,44,30.20,30.11,8,0,8,0.00
2013-5-28,85.5,74.6,62.1,70.1,66.0,61.7,100,76,54,30.17,30.10,8,0,8,0.00
2013-5-29,88.0,77.7,67.6,75.6,70.6,67.3,100,80,58,30.15,30.08,10,0,10,0.00
2013-5-30,87.6,78.9,71.8,75.0,71.8,69.4,100,80,56,30.16,30.07,6,0,6,0.01
2013-5-31,87.8,78.7,70.4,73.4,70.4,67.9,100,78,55,30.14,30.07,9,0,9,0.01
2013-6-1,89.3,78.8,70.4,74.9,71.1,67.8,100,79,52,30.09,30.00,9,0,9,0.00
2013-6-2,88.4,79.5,73.9,78.7,74.8,72.5,100,87,65,30.05,29.86,9,0,9,0.18
2013-6-3,91.6,78.6,72.3,79.0,73.9,71.0,100,87,55,29.95,29.84,7,0,7,0.03
2013-6-4,87.4,74.8,71.3,78.5,73.1,71.3,100,95,65,30.00,29.91,6,0,6,0.04
2013-6-5,85.3,75.6,72.3,75.8,73.0,70.0,100,92,64,30.00,29.92,5,0,5,0.13
2013-6-6,77.6,74.4,72.3,77.6,74.4,72.3,100,100,97,29.93,29.51,17,0,17,1.75
2013-6-7,88.8,78.4,70.3,76.4,72.3,70.0,100,83,57,29.90,29.56,12,1,12,0.13
2013-6-8,92.7,79.9,71.3,77.1,72.7,69.4,100,81,49,30.06,29.90,6,0,6,0.00
2013-6-9,91.2,78.1,72.3,80.0,74.5,71.3,100,90,60,30.11,30.02,8,0,8,0.28
2013-6-10,91.4,81.0,74.6,79.3,74.9,71.2,100,84,55,30.09,29.98,6,0,6,0.01
2013-6-11,92.5,81.3,73.2,77.6,74.3,72.1,100,81,53,30.07,29.97,6,0,6,0.00
2013-6-12,97.3,83.5,72.0,78.3,73.8,69.1,100,76,41,30.05,29.94,6,0,6,0.00
2013-6-13,95.6,83.6,75.4,78.6,75.7,71.8,100,79,48,29.98,29.83,9,0,9,0.00
2013-6-14,92.1,79.6,71.1,78.8,75.2,71.1,100,88,59,29.92,29.77,12,0,12,2.04
2013-6-15,88.2,78.5,71.3,76.5,70.7,66.6,100,79,54,30.08,29.92,8,0,8,0.00
2013-6-16,89.3,79.0,69.4,75.3,71.7,69.1,100,80,56,30.11,30.02,7,0,7,0.00
2013-6-17,93.4,81.8,75.6,78.9,75.4,72.2,99,82,53,30.07,29.93,7,0,7,0.00
2013-6-18,92.9,81.5,71.1,76.8,72.5,69.7,100,77,48,30.02,29.90,12,0,12,0.00
2013-6-19,94.5,82.0,72.7,77.9,73.2,68.1,100,77,43,30.02,29.90,7,0,7,0.00
2013-6-20,91.6,78.3,71.8,77.4,73.6,69.4,100,87,56,30.08,29.97,8,0,8,0.45
2013-6-21,90.3,77.3,72.7,77.6,74.3,71.1,100,92,59,30.11,30.03,8,0,8,1.74
2013-6-22,86.7,76.9,72.3,79.6,73.8,71.1,100,91,68,30.11,30.05,5,0,5,0.01
2013-6-23,92.7,80.3,71.3,78.8,73.3,67.6,100,82,51,30.15,30.07,7,0,7,0.00
2013-6-24,92.7,80.8,72.8,78.3,73.5,68.0,100,81,47,30.18,30.07,7,0,9,0.00
2013-6-25,94.0,81.2,73.2,77.9,73.8,64.2,100,81,40,30.16,30.02,6,0,6,0.02
2013-6-26,93.8,80.0,72.7,77.8,73.8,69.6,100,83,49,30.08,29.98,6,0,6,0.00
2013-6-27,93.6,81.2,70.1,76.7,73.4,69.9,100,79,52,30.01,29.86,6,0,6,0.00
2013-6-28,91.2,79.7,75.6,76.7,74.0,71.1,99,83,55,29.92,29.77,15,0,15,0.00
2013-6-29,85.9,79.1,75.8,77.6,74.5,71.6,99,86,65,29.81,29.73,12,0,12,0.00
2013-6-30,91.0,78.7,73.9,77.9,75.0,72.2,100,89,58,29.84,29.76,11,0,13,0.13
2013-7-1,84.9,75.5,73.2,76.2,73.7,71.0,100,94,73,30.00,29.81,10,0,10,0.74
2013-7-2,88.8,76.7,73.5,77.9,75.0,73.0,100,95,66,30.09,29.97,8,0,8,0.35
2013-7-3,89.9,79.0,72.3,81.1,75.2,72.3,100,89,62,30.12,30.05,7,0,9,0.00
2013-7-4,90.7,79.9,72.0,76.9,74.5,70.9,100,85,61,30.17,30.07,10,0,10,1.31
2013-7-5,89.0,79.7,72.1,81.6,74.5,71.3,100,86,61,30.15,30.08,11,0,11,0.06
2013-7-6,90.5,81.5,74.7,77.4,74.6,72.8,100,81,59,30.13,30.05,10,0,11,0.00
2013-7-7,91.6,81.2,73.2,78.5,74.1,71.1,100,81,54,30.14,30.06,8,0,8,0.00
2013-7-8,92.7,81.2,72.1,79.4,74.1,71.9,100,81,54,30.17,30.07,5,0,7,0.00
2013-7-9,93.4,81.8,72.8,78.5,73.3,68.3,100,78,47,30.17,30.05,5,0,5,0.00
2013-7-10,93.4,80.7,69.8,78.2,72.5,68.4,100,79,48,30.09,29.94,5,0,5,0.00
2013-7-11,94.3,80.8,73.7,76.4,74.0,70.2,100,82,49,30.01,29.85,7,0,7,0.94
2013-7-12,86.1,77.6,73.5,80.5,75.2,73.0,100,93,70,29.93,29.86,4,0,5,0.06
2013-7-13,87.0,75.8,71.8,78.8,74.1,71.8,100,95,68,29.99,29.88,5,0,5,2.41
2013-7-14,86.5,76.7,70.3,77.6,73.1,70.3,100,90,66,30.11,29.97,7,0,7,0.01
2013-7-15,84.0,76.9,72.0,80.0,75.3,72.0,100,95,79,30.16,30.08,7,0,7,0.79
2013-7-16,89.9,81.1,74.6,79.4,75.3,72.6,100,84,62,30.18,30.12,12,0,12,0.01
2013-7-17,91.4,78.2,73.9,80.5,75.0,69.7,100,91,53,30.19,30.08,10,0,10,0.00
2013-7-18,91.4,80.1,72.0,79.6,73.8,70.9,100,83,53,30.12,30.03,7,0,7,0.00
2013-7-19,88.4,77.6,73.2,78.2,74.4,71.6,100,91,61,30.11,30.03,8,0,8,1.27
2013-7-20,88.2,76.8,72.5,78.6,73.9,70.1,100,92,68,30.08,30.00,11,0,13,0.02
2013-7-21,91.0,78.8,72.5,78.3,75.3,71.2,100,90,59,30.09,30.00,15,0,15,0.65
2013-7-22,90.1,78.9,74.6,79.1,76.4,71.4,100,93,59,30.11,30.00,22,0,22,0.52
2013-7-23,89.0,78.4,74.0,78.2,75.4,73.5,100,91,67,30.01,29.89,8,0,10,0.06
2013-7-24,86.5,77.9,72.7,77.0,74.7,71.2,100,90,71,29.91,29.80,12,0,12,0.30
2013-7-25,89.9,79.9,73.0,76.9,74.6,72.1,100,85,58,29.94,29.81,8,0,8,0.00
2013-7-26,94.0,82.3,74.0,80.4,75.8,72.5,100,83,51,30.00,29.92,4,0,4,0.00
2013-7-27,92.3,80.9,75.6,79.9,76.4,73.6,100,87,58,29.99,29.85,4,0,8,0.35
2013-7-28,90.7,79.4,74.2,78.5,75.0,72.3,100,88,58,30.04,29.90,7,0,7,0.00
2013-7-29,93.8,81.7,72.0,78.1,74.4,72.0,100,81,52,30.13,30.01,2,0,5,0.00
2013-7-30,91.6,80.2,75.3,79.3,76.3,72.8,100,89,61,30.16,30.08,8,0,8,0.07
2013-7-31,91.4,78.2,73.9,80.3,75.6,73.0,100,93,61,30.11,30.02,8,0,8,0.45
2013-8-1,92.3,78.4,73.3,80.9,74.8,71.6,100,90,56,30.03,29.92,8,0,10,0.01
2013-8-2,92.5,81.1,72.7,78.3,74.8,72.3,100,83,55,30.02,29.92,5,0,5,0.00
2013-8-3,90.7,80.7,74.4,81.7,77.3,74.2,100,91,63,30.04,29.96,4,0,5,0.24
2013-8-4,94.5,83.8,76.5,80.3,76.9,70.9,100,82,49,30.04,29.91,6,0,6,0.01
2013-8-5,96.6,86.0,78.1,81.1,77.3,72.2,100,78,47,29.98,29.87,10,0,10,0.00
2013-8-6,93.4,83.5,78.3,80.5,77.5,75.2,100,84,58,29.98,29.89,6,0,6,0.00
2013-8-7,89.5,82.2,77.6,79.2,76.7,74.6,100,84,66,29.99,29.92,6,0,7,0.02
2013-8-8,92.3,82.1,76.5,81.2,76.7,74.2,100,85,60,30.04,29.94,5,0,5,0.01
2013-8-9,92.1,82.5,76.0,80.6,76.4,71.8,100,84,54,30.07,29.97,6,0,6,0.03
2013-8-10,94.3,82.6,74.2,79.8,75.9,71.3,100,83,48,30.13,30.04,7,0,7,0.00
2013-8-11,95.6,84.2,76.1,80.5,76.0,69.6,100,79,45,30.15,30.04,6,0,6,0.00
2013-8-12,96.6,82.9,75.4,83.1,76.9,73.9,100,84,51,30.12,29.97,6,0,6,0.06
2013-8-13,95.6,83.5,74.9,80.4,75.2,67.7,100,79,42,30.02,29.88,5,0,6,0.00
2013-8-14,97.1,82.9,74.2,79.8,75.5,68.4,100,81,46,29.98,29.84,7,0,9,0.92
2013-8-15,94.3,81.5,74.6,81.8,75.7,72.4,100,85,50,30.02,29.89,8,0,10,0.51
2013-8-16,88.4,78.7,73.5,79.8,75.4,73.0,100,90,65,30.04,29.93,6,0,7,0.02
2013-8-17,91.0,80.1,75.1,80.3,76.6,74.5,100,90,62,30.10,29.98,5,0,5,0.21
2013-8-18,91.4,81.3,74.6,83.0,77.0,74.1,100,88,64,30.11,30.01,3,0,9,0.01
2013-8-19,93.4,82.9,74.4,81.6,77.3,72.2,100,85,53,30.09,29.95,7,0,7,0.18
2013-8-20,92.5,78.0,74.2,82.0,75.4,72.6,100,93,59,30.11,30.00,7,0,7,0.01
2013-8-21,91.4,80.9,74.7,82.6,77.2,74.2,100,89,63,30.15,30.07,5,0,5,0.05
2013-8-22,83.2,77.2,73.3,79.9,76.3,72.8,100,97,77,30.17,30.00,11,0,11,1.17
2013-8-23,87.8,77.7,74.2,83.0,76.4,74.2,100,96,70,30.03,29.98,10,0,10,0.32
2013-8-24,84.3,78.4,74.4,78.3,76.0,74.4,100,93,77,30.13,30.00,4,0,4,0.00
2013-8-25,83.6,76.0,73.9,77.7,74.8,71.5,100,96,71,30.19,30.10,14,0,14,0.15
2013-8-26,88.2,78.8,72.3,76.6,73.7,72.1,100,86,62,30.17,30.05,11,0,11,0.00
2013-8-27,88.6,79.1,72.5,76.1,72.3,68.0,100,82,53,30.09,29.99,6,0,6,0.00
2013-8-28,89.7,75.6,69.6,76.5,71.6,67.0,100,89,52,30.05,29.94,4,0,4,0.00
2013-8-29,93.2,80.6,70.4,76.0,71.5,67.4,100,77,43,30.01,29.89,7,0,7,0.00
2013-8-30,93.8,81.7,74.0,78.9,74.5,71.4,100,81,49,29.95,29.84,5,0,5,0.00
2013-8-31,92.7,78.4,72.3,78.5,74.6,72.3,100,90,55,29.94,29.85,7,0,10,1.73
2013-9-1,91.4,79.6,73.5,81.4,74.8,71.4,100,87,55,29.96,29.85,7,0,7,0.01
2013-9-2,91.8,80.9,73.0,77.6,74.5,72.2,100,83,56,29.97,29.86,10,0,10,0.00
2013-9-3,90.5,81.0,74.2,77.5,75.7,73.3,100,85,59,29.98,29.88,6,0,6,0.00
2013-9-4,94.3,81.1,74.2,79.9,75.5,70.0,100,86,48,30.07,29.95,8,0,8,0.31
2013-9-5,93.6,80.1,73.5,80.7,76.0,71.7,100,89,51,30.08,29.98,18,0,18,0.53
2013-9-6,91.8,77.4,72.7,80.7,75.3,70.9,100,94,60,30.05,29.96,10,0,10,1.43
2013-9-7,91.0,78.6,70.9,79.8,72.4,68.2,100,84,51,30.02,29.94,8,0,8,0.01
2013-9-8,91.0,79.1,70.3,76.8,70.5,62.7,100,78,40,29.98,29.89,7,0,9,0.00
2013-9-9,90.3,78.2,70.3,76.7,70.9,65.4,100,81,45,30.05,29.95,3,0,5,0.00
2013-9-10,89.7,78.8,70.6,77.4,71.5,68.1,100,81,52,30.12,30.02,7,0,7,0.00
2013-9-11,89.9,78.8,71.1,79.0,73.3,71.1,100,85,57,30.11,30.02,9,0,9,0.02
2013-9-12,89.3,78.7,71.8,79.9,73.8,71.6,100,86,59,30.04,29.88,5,0,7,0.33
2013-9-13,93.8,80.6,71.8,77.6,72.7,66.1,100,81,42,29.90,29.76,6,0,6,0.00
2013-9-14,92.9,79.5,72.1,77.5,73.6,69.3,100,84,48,29.98,29.80,4,0,4,0.02
2013-9-15,91.8,80.8,73.0,81.6,74.8,72.1,100,84,55,30.08,29.97,8,0,8,0.08
2013-9-16,91.0,80.5,73.9,80.3,75.0,72.6,100,85,58,30.08,29.98,5,0,5,0.03
2013-9-17,87.4,77.4,72.5,79.8,74.6,70.9,100,92,66,30.09,29.99,10,0,10,0.55
2013-9-18,83.2,75.7,71.8,79.0,73.4,68.5,100,93,73,30.10,30.01,8,0,9,1.20
2013-9-19,84.3,75.4,71.5,77.0,73.4,70.7,100,94,69,30.08,30.01,9,0,9,1.49
2013-9-20,87.2,76.0,69.6,76.1,70.9,67.9,100,86,55,30.04,29.91,6,0,6,0.01
2013-9-21,88.6,77.0,68.1,76.8,71.2,68.1,100,84,56,29.94,29.73,6,0,6,0.00
2013-9-22,82.0,75.8,73.5,77.6,74.0,71.3,100,94,78,29.84,29.72,7,0,7,0.44
2013-9-23,82.4,76.4,73.2,77.7,74.9,73.2,100,95,78,29.94,29.82,3,0,3,0.01
2013-9-24,83.2,77.0,74.4,79.2,75.6,73.8,100,96,76,29.94,29.81,9,0,9,0.47
2013-9-25,83.6,77.7,74.4,77.6,75.4,72.8,100,93,75,29.82,29.72,8,0,8,0.01
2013-9-26,78.3,74.9,69.6,77.4,73.8,67.9,100,97,81,29.90,29.72,9,0,9,0.02
2013-9-27,81.1,72.6,66.0,71.6,68.0,64.9,99,86,71,29.99,29.87,12,0,12,0.00
2013-9-28,77.7,73.2,70.1,71.8,68.8,63.0,100,87,65,30.06,29.95,11,0,11,0.09
2013-9-29,84.3,73.2,66.9,71.7,68.1,66.2,100,85,63,30.02,29.93,10,0,10,0.00
2013-9-30,83.6,73.2,66.8,71.8,67.7,63.7,100,85,55,30.03,29.92,5,0,9,0.00
2013-10-1,83.2,73.2,65.8,68.3,66.4,63.9,99,80,57,30.09,30.00,4,0,7,0.01
2013-10-2,83.4,71.5,62.7,70.3,66.2,62.7,100,85,58,30.09,30.03,9,0,9,0.00
2013-10-3,86.1,74.7,66.8,75.4,71.0,66.8,100,89,65,30.09,30.00,6,0,6,0.01
2013-10-4,89.9,74.5,69.3,79.9,72.1,69.3,100,93,53,30.09,30.00,5,0,5,0.00
2013-10-5,87.4,76.4,68.8,78.5,72.2,68.8,100,88,63,30.07,29.98,8,0,8,0.01
2013-10-6,87.4,76.9,69.6,77.7,73.7,69.6,100,91,66,29.99,29.85,5,0,5,0.02
2013-10-7,86.7,77.2,71.3,77.9,73.8,71.3,100,90,64,29.86,29.73,6,0,6,0.00
2013-10-8,81.1,73.0,66.0,77.2,72.0,63.9,100,97,80,30.00,29.77,12,1,12,0.16
2013-10-9,70.6,64.4,61.3,65.5,62.9,61.2,100,95,76,30.08,29.99,10,0,10,0.03
2013-10-10,82.6,69.5,60.9,69.6,63.2,58.6,100,84,47,30.07,29.96,8,0,8,0.00
2013-10-11,83.8,70.0,60.5,71.3,63.1,58.7,100,82,44,30.03,29.92,8,0,8,0.01
2013-10-12,85.5,71.1,62.1,69.6,63.4,58.3,100,81,42,30.03,29.95,6,0,6,0.00
2013-10-13,87.8,71.2,60.1,69.6,64.1,59.1,100,82,39,30.08,30.00,5,0,6,0.01
2013-10-14,79.4,70.5,65.2,68.9,66.8,65.2,100,89,66,30.07,29.98,12,0,12,0.00
2013-10-15,71.3,69.2,67.9,69.8,67.6,65.4,100,95,89,30.01,29.93,12,1,12,0.04
2013-10-16,85.1,72.9,65.2,71.0,67.7,64.4,100,85,57,29.98,29.90,7,0,7,0.00
2013-10-17,86.7,74.2,64.3,75.8,68.3,64.3,100,84,52,29.97,29.87,3,0,4,0.01
2013-10-18,88.0,75.9,67.3,76.3,70.8,67.3,100,86,57,29.98,29.87,7,0,7,0.00
2013-10-19,87.0,76.5,69.8,76.8,72.7,69.8,100,89,59,29.94,29.83,5,0,5,0.04
2013-10-20,79.9,72.1,66.1,72.8,65.5,61.0,100,81,58,29.99,29.88,8,0,8,0.02
2013-10-21,82.4,73.6,66.3,75.2,70.5,65.8,100,90,75,30.01,29.92,8,0,8,0.01
2013-10-22,81.1,74.0,70.4,77.0,73.1,70.4,100,97,81,29.97,29.79,7,0,7,0.20
2013-10-23,75.3,66.2,52.8,71.3,59.6,49.2,100,82,45,30.03,29.80,9,0,9,0.08
2013-10-24,70.8,58.5,51.0,55.9,47.0,40.5,100,69,37,30.17,30.02,3,0,7,0.00
2013-10-25,74.0,59.2,48.6,57.7,50.3,43.3,100,76,43,30.26,30.15,10,0,10,0.00
2013-10-26,73.5,58.1,46.8,56.5,51.1,46.5,100,80,46,30.25,30.11,6,0,6,0.00
2013-10-27,75.4,58.4,46.0,59.0,49.0,37.1,100,77,27,30.16,30.07,6,0,6,0.01
2013-10-28,79.9,62.6,50.5,63.5,56.2,50.5,100,83,50,30.21,30.10,7,0,7,0.00
2013-10-29,79.6,65.5,55.6,69.1,60.5,55.6,100,86,53,30.27,30.18,6,0,8,0.01
2013-10-30,80.7,67.6,58.1,70.3,63.0,58.1,100,87,61,30.26,30.15,8,0,8,0.00
2013-10-31,85.5,72.3,63.4,74.4,66.6,63.4,100,85,54,30.15,29.97,7,0,7,0.00
2013-11-1,82.6,73.4,67.1,74.4,69.0,67.1,100,88,62,29.99,29.80,9,0,9,0.01
2013-11-2,74.9,66.8,55.7,73.9,64.6,55.7,100,93,65,29.95,29.76,5,0,6,2.15
2013-11-3,71.8,58.8,49.4,55.7,50.5,44.3,100,77,41,30.19,29.95,12,0,12,0.01
2013-11-4,73.0,57.6,52.8,65.2,53.2,49.1,100,86,65,30.26,30.17,14,0,15,0.20
2013-11-5,69.6,65.5,61.2,67.9,64.1,59.8,100,95,82,30.25,30.17,12,1,12,0.01
2013-11-6,79.2,70.3,66.0,69.9,67.9,65.8,100,93,69,30.17,30.07,8,0,8,0.02
2013-11-7,79.6,70.9,66.9,68.8,67.2,63.5,100,89,61,30.07,29.96,8,0,8,0.00
2013-11-8,68.9,58.8,49.4,63.9,49.5,43.2,94,72,58,30.20,30.01,15,1,15,0.00
2013-11-9,77.4,61.8,50.1,62.3,57.0,49.7,100,86,54,30.23,30.15,9,0,9,0.00
2013-11-10,78.1,64.6,57.0,69.8,61.1,57.0,100,90,58,30.22,30.11,6,0,6,0.01
2013-11-11,78.3,64.2,53.9,65.0,59.4,53.9,100,86,55,30.19,30.10,7,0,7,0.00
2013-11-12,76.3,65.9,58.9,65.4,60.5,46.8,100,84,52,30.14,30.01,19,0,19,0.00
2013-11-13,59.8,48.9,42.2,47.2,38.2,31.4,76,67,58,30.42,30.14,10,1,12,0.00
2013-11-14,66.9,53.2,40.2,56.3,47.7,32.5,100,82,67,30.38,30.21,13,0,13,0.00
2013-11-15,66.6,61.7,54.2,66.4,61.3,54.2,100,99,86,30.22,30.05,5,0,5,0.08
2013-11-16,76.8,67.6,59.2,73.0,64.8,59.2,100,92,68,30.17,30.07,5,0,5,0.01
2013-11-17,81.2,72.1,67.3,74.4,70.4,67.3,100,95,75,30.10,29.98,2,0,3,0.13
2013-11-18,78.5,72.1,67.4,77.6,71.4,67.4,100,98,82,30.01,29.88,10,0,10,0.32
2013-11-19,71.8,62.8,54.5,71.8,55.5,42.3,100,78,58,30.04,29.90,11,0,11,0.00
2013-11-20,70.8,64.0,57.6,64.6,61.0,55.7,100,90,79,30.17,30.01,12,0,12,0.08
2013-11-21,76.0,67.3,63.4,68.1,64.9,63.4,100,93,74,30.24,30.15,10,0,10,0.01
2013-11-22,79.8,69.2,62.3,72.1,66.3,62.3,100,91,67,30.24,30.12,6,0,6,0.00
2013-11-23,82.0,68.3,58.3,71.8,63.5,58.3,100,86,53,30.12,29.99,8,0,8,0.00
2013-11-24,63.9,56.5,50.7,60.6,47.0,38.6,90,71,52,30.33,30.06,14,1,14,0.01
2013-11-25,68.8,56.5,42.8,61.3,51.5,39.2,100,84,70,30.32,30.09,8,0,8,0.00
2013-11-26,75.3,68.9,59.3,75.3,68.5,59.0,100,99,91,30.09,29.68,4,0,6,1.32
2013-11-27,71.6,55.7,37.5,71.6,51.9,33.8,100,88,69,30.22,29.60,13,1,13,0.14
2013-11-28,57.2,43.1,31.3,44.7,36.1,25.9,87,77,59,30.41,30.22,12,0,12,0.00
2013-11-29,66.0,52.1,41.1,51.0,44.7,36.2,87,76,56,30.43,30.34,9,0,9,0.00
2013-11-30,62.9,56.1,52.9,56.3,52.5,47.6,93,88,78,30.38,30.22,13,0,13,0.00
2013-12-1,73.2,59.6,51.9,61.2,55.3,49.1,100,86,63,30.22,29.98,6,0,6,0.00
2013-12-2,70.1,58.8,51.3,58.0,55.4,51.3,100,90,62,29.98,29.81,4,0,6,0.00
2013-12-3,76.0,60.2,48.3,61.6,55.9,48.3,100,88,56,29.96,29.86,5,0,5,0.00
2013-12-4,79.4,65.4,55.9,70.6,62.7,55.9,100,92,64,30.09,29.94,4,0,4,0.00
2013-12-5,83.6,68.2,56.9,73.0,63.9,56.9,100,88,55,30.16,30.05,6,0,6,0.01
2013-12-6,83.6,70.4,62.1,74.0,66.4,62.1,100,89,58,30.15,30.07,6,0,6,0.00
2013-12-7,83.6,71.3,63.2,74.7,67.7,63.2,100,90,59,30.21,30.12,6,0,6,0.01
2013-12-8,73.7,66.6,63.9,67.8,65.4,63.4,100,96,79,30.24,30.12,3,0,5,0.00
2013-12-9,83.8,71.5,64.0,74.9,67.0,64.0,100,88,58,30.17,30.05,6,0,6,0.00
2013-12-10,78.8,67.5,52.8,73.2,64.9,46.6,100,92,71,30.25,30.01,10,0,10,0.45
2013-12-11,66.1,56.7,47.3,59.4,51.1,42.1,86,81,77,30.29,30.21,9,0,9,0.00
2013-12-12,65.2,54.4,40.8,51.1,38.7,23.3,97,61,22,30.36,30.23,4,0,8,0.00
2013-12-13,66.9,46.7,40.5,55.8,44.8,40.0,100,94,63,30.33,30.12,6,0,6,0.00
2013-12-14,76.0,65.2,52.0,69.8,63.6,52.0,100,95,78,30.12,29.86,9,0,9,0.81
2013-12-15,67.6,59.9,46.7,67.6,57.5,43.1,100,92,76,30.16,29.83,14,0,14,0.47
2013-12-16,58.6,45.7,37.0,44.9,40.3,35.2,100,84,50,30.25,30.14,6,0,6,0.00
2013-12-17,67.1,48.5,36.9,48.5,40.4,34.5,100,79,31,30.27,30.15,8,0,8,0.01
2013-12-18,63.9,48.1,38.2,45.1,37.1,24.3,100,74,24,30.30,30.18,8,0,8,0.00
2013-12-19,71.6,51.4,35.5,57.8,47.2,35.5,100,88,59,30.30,30.18,8,0,8,0.00
2013-12-20,77.4,59.3,45.4,65.6,54.9,45.4,100,88,55,30.21,30.11,4,0,6,0.01
2013-12-21,83.4,68.2,55.6,71.8,63.6,55.6,100,87,55,30.13,30.00,12,0,12,0.00
2013-12-22,82.8,73.1,66.8,74.6,69.7,66.8,100,90,65,30.12,30.04,7,0,7,0.01
2013-12-23,82.0,72.4,60.5,73.3,68.9,58.4,100,90,66,30.13,30.03,10,0,10,0.00
2013-12-24,61.2,53.0,41.5,58.5,43.8,31.9,99,74,35,30.31,30.11,8,1,10,0.02
2013-12-25,62.3,44.2,37.6,53.6,38.6,31.6,91,81,69,30.30,30.23,12,0,12,0.00
2013-12-26,57.0,52.5,48.9,50.6,48.0,44.9,95,85,72,30.27,30.17,5,0,8,0.00
2013-12-27,60.5,52.5,49.9,54.4,49.5,46.7,93,90,78,30.32,30.21,9,0,9,0.02
2013-12-28,68.6,63.0,56.5,68.6,60.7,50.1,100,92,79,30.28,29.97,6,0,6,0.03
2013-12-29,72.3,67.9,58.0,72.1,67.1,57.8,100,97,88,30.00,29.87,5,0,6,1.69
2013-12-30,66.3,55.3,47.0,57.8,50.0,45.9,100,85,52,30.19,29.99,9,0,9,0.01
2013-12-31,61.5,56.1,53.1,53.9,50.3,46.3,100,82,58,30.32,30.17,6,0,6,0.00
2014-1-1,60.1,56.4,51.6,60.1,55.0,48.4,100,95,84,30.30,30.07,2,0,2,0.86
2014-1-2,65.8,60.7,50.7,65.8,60.3,43.6,100,99,78,30.07,29.74,12,0,12,1.35